Retour au catalogue

STARLINK-31912

ActifCommunicationsVLEO
NORAD 59656·PAYLOAD·🇺🇸 United States

Lancé May 6, 2024 depuis Cape Canaveral Space Force Station

Loading…

Prochains Passages (prochaines 24 heures)

TLE

FraisSource: CelesTrak SupGP

Époque: Sep 15, 2026, 03:01 UTC

1 59656C 24084C   26258.12618056 -.00027104  00000+0 -98154-3 0  2584
2 59656  43.0020  52.1671 0001447 270.3087  53.1199 15.27596951    16

Suivez STARLINK-31912 en temps réel avec AllMySat

Download on the App Store